Regional Weather Roundup
Issued by NWS

Home | Current Version | Previous Version | Graphics & Text | Print | Product List | Glossary On
Versions: 1 2 3 4 5 6 7 8 9 10 11 12 13 14 15 16 17 18 19 20 21 22 23 24 25 26 27 28 29 30 31 32 33 34 35 36 37 38 39 40 41 42 43 44 45 46 47 48 49 50
000
ASUS43 KLSX 231607
RWRMO

WEATHER SUMMARY FOR MISSOURI
NATIONAL WEATHER SERVICE SPRINGFIELD MO
1100 AM CDT WED APR 23 2014

NOTE: "FAIR" INDICATES FEW OR NO CLOUDS BELOW 12,000 FEET WITH NO
       SIGNIFICANT WEATHER AND/OR OBSTRUCTIONS TO VISIBILITY.
       CURRENT SKY AND/OR WEATHER CONDITIONS ARE NOT AVAILABLE FOR
       CHILLICOTHE AND FARMINGTON.

MOZ001>031-035>038-043-044-053-054-231700-
...NORTHERN AND WESTERN MISSOURI...

CITY           SKY/WX    TMP DP  RH WIND       PRES   REMARKS
KANSAS CTY INT CLOUDY    57  35  43 SE17      29.97F
KANSAS C DTWN  CLOUDY    60  35  39 SE14      29.97F
LEE`S SUMMIT   CLOUDY    59  36  42 SE13G24   29.98F
ST JOSEPH      CLOUDY    54  41  61 SE15      29.96F
CHILLICOTHE      N/A     54  38  54 SE8       30.04F
KIRKSVILLE     CLOUDY    52  36  54 SE14      30.09S

$$
MOZ066>068-077>081-088>096-101>105-231700-
...SOUTHWEST MISSOURI...

CITY           SKY/WX    TMP DP  RH WIND       PRES   REMARKS
SPRINGFIELD    MOSUNNY   64  38  38 S18G26    30.01S
JOPLIN         PTSUNNY   68  42  38 SE16      29.95F

$$
MOZ032>034-039>042-045>050-055>058-069>072-231700-
...CENTRAL MISSOURI...

CITY           SKY/WX    TMP DP  RH WIND       PRES   REMARKS
COLUMBIA       PTSUNNY   59  36  42 SE9       30.06F HAZE
JEFFERSON CITY CLOUDY    61  35  37 SE12      30.05F
ROLLA          MOSUNNY   62  35  36 E12       30.06S
SEDALIA        CLOUDY    59  36  42 SE13      30.04R
WHITEMAN AFB   PTSUNNY   57  29  34 SE9       30.02F
OSAGE BEACH    CLOUDY    61  32  33 SE7       30.04F

$$
MOZ051-052-059>065-231700-
...EAST CENTRAL MISSOURI...

CITY           SKY/WX    TMP DP  RH WIND       PRES   REMARKS
ST LOUIS INTL  MOSUNNY   58  36  43 E13       30.13S
SPIRIT OF STL  MOSUNNY   57  37  47 E12G18    30.10F
ST CHARLES     SUNNY     58  36  43 E17G25    30.11F

$$
MOZ072>076-082>087-097>100-106>115-231700-
...SOUTH CENTRAL AND SOUTHEAST MISSOURI...

CITY           SKY/WX    TMP DP  RH WIND       PRES   REMARKS
CAPE GIRARDEAU SUNNY     62  38  40 SE10      30.10S
FARMINGTON     SUNNY     61  37  41 NE6       30.11F
POPLAR BLUFF   SUNNY     65  37  35 SE9       30.08S
WEST PLAINS    SUNNY     63  35  35 S8        30.08S

$$



USA.gov is the U.S. government's official web portal to all federal, state and local government web resources and services.